Time,TemperatureF,DewpointF,PressureIn,WindDirection,WindDirectionDegrees,WindSpeedMPH,WindSpeedGustMPH,Humidity,HourlyPrecipIn,Conditions,Clouds,dailyrainin,SoftwareType,DateUTC
2013-02-13 00:04:00,39.6,39.1,29.70,SE,135,0.0,-999.0,98,-99.99,,,0.00,Acu-Link.com,2013-02-13 05:04:00,
2013-02-13 00:19:00,39.6,39.1,29.66,SSE,157,0.0,-999.0,98,-99.99,,,0.00,Acu-Link.com,2013-02-13 05:19:00,
2013-02-13 00:34:00,39.6,39.1,29.66,NE,45,1.1,-999.0,98,-99.99,,,0.01,Acu-Link.com,2013-02-13 05:34:00,
2013-02-13 00:49:00,39.6,39.1,29.65,ESE,112,0.0,-999.0,98,-99.99,,,0.04,Acu-Link.com,2013-02-13 05:49:00,
2013-02-13 01:05:00,39.2,38.7,29.63,SSW,202,1.7,-999.0,98,-99.99,,,0.08,Acu-Link.com,2013-02-13 06:05:00,
2013-02-13 01:20:00,39.2,38.7,29.63,South,180,1.1,-999.0,98,-99.99,,,0.09,Acu-Link.com,2013-02-13 06:20:00,
2013-02-13 01:35:00,39.2,38.7,29.62,NNW,337,0.0,-999.0,98,-99.99,,,0.11,Acu-Link.com,2013-02-13 06:35:00,
2013-02-13 01:50:00,39.2,38.7,29.62,South,180,0.0,-999.0,98,-99.99,,,0.11,Acu-Link.com,2013-02-13 06:50:00,
2013-02-13 02:05:00,39.2,38.7,29.62,ESE,112,0.0,-999.0,98,-99.99,,,0.12,Acu-Link.com,2013-02-13 07:05:00,
2013-02-13 02:21:00,39.2,38.7,29.60,East,90,0.0,-999.0,98,-99.99,,,0.12,Acu-Link.com,2013-02-13 07:21:00,
2013-02-13 02:36:00,39.2,38.7,29.61,SSE,157,0.0,-999.0,98,-99.99,,,0.12,Acu-Link.com,2013-02-13 07:36:00,
2013-02-13 02:51:00,39.2,38.7,29.61,SSW,202,1.1,-999.0,98,-99.99,,,0.12,Acu-Link.com,2013-02-13 07:51:00,
2013-02-13 03:06:00,39.2,38.7,29.60,SE,135,0.0,-999.0,98,-99.99,,,0.12,Acu-Link.com,2013-02-13 08:06:00,
2013-02-13 03:22:00,39.2,38.7,29.59,South,180,0.0,-999.0,98,-99.99,,,0.12,Acu-Link.com,2013-02-13 08:22:00,
2013-02-13 03:37:00,39.2,38.7,29.59,South,180,0.0,-999.0,98,-99.99,,,0.12,Acu-Link.com,2013-02-13 08:37:00,
2013-02-13 03:52:00,39.2,38.7,29.57,SE,135,0.0,-999.0,98,-99.99,,,0.12,Acu-Link.com,2013-02-13 08:52:00,
2013-02-13 04:16:00,39.2,38.7,29.57,SSW,202,0.0,-999.0,98,-99.99,,,0.12,Acu-Link.com,2013-02-13 09:16:00,
2013-02-13 04:31:00,39.2,38.7,29.56,ESE,112,0.0,-999.0,98,-99.99,,,0.12,Acu-Link.com,2013-02-13 09:31:00,
2013-02-13 04:46:00,39.2,38.7,29.55,ESE,112,0.0,-999.0,98,-99.99,,,0.12,Acu-Link.com,2013-02-13 09:46:00,
2013-02-13 05:01:00,39.2,38.7,29.57,SE,135,0.0,-999.0,98,-99.99,,,0.12,Acu-Link.com,2013-02-13 10:01:00,
2013-02-13 05:16:00,39.2,38.7,29.57,SSE,157,0.0,-999.0,98,-99.99,,,0.13,Acu-Link.com,2013-02-13 10:16:00,
2013-02-13 05:31:00,39.0,38.5,29.55,ENE,67,0.0,-999.0,98,-99.99,,,0.13,Acu-Link.com,2013-02-13 10:31:00,
2013-02-13 05:47:00,39.0,38.5,29.54,East,90,0.0,-999.0,98,-99.99,,,0.13,Acu-Link.com,2013-02-13 10:47:00,
2013-02-13 06:02:00,39.0,38.5,29.55,SSE,157,0.0,-999.0,98,-99.99,,,0.13,Acu-Link.com,2013-02-13 11:02:00,
2013-02-13 06:17:00,39.0,38.5,29.54,NW,315,0.0,-999.0,98,-99.99,,,0.13,Acu-Link.com,2013-02-13 11:17:00,
2013-02-13 06:32:00,38.8,38.3,29.54,SSE,157,2.2,-999.0,98,-99.99,,,0.13,Acu-Link.com,2013-02-13 11:32:00,
2013-02-13 06:47:00,38.8,38.3,29.52,SE,135,0.0,-999.0,98,-99.99,,,0.13,Acu-Link.com,2013-02-13 11:47:00,
2013-02-13 07:03:00,38.8,38.3,29.54,SSE,157,0.0,-999.0,98,-99.99,,,0.13,Acu-Link.com,2013-02-13 12:03:00,
2013-02-13 07:18:00,38.8,38.3,29.54,NNE,22,0.0,-999.0,98,-99.99,,,0.13,Acu-Link.com,2013-02-13 12:18:00,
2013-02-13 07:33:00,38.8,38.3,29.55,SW,225,0.0,-999.0,98,-99.99,,,0.14,Acu-Link.com,2013-02-13 12:33:00,
2013-02-13 07:48:00,38.8,38.3,29.53,East,90,1.7,-999.0,98,-99.99,,,0.14,Acu-Link.com,2013-02-13 12:48:00,
2013-02-13 08:03:00,38.8,38.3,29.53,NE,45,0.0,-999.0,98,-99.99,,,0.14,Acu-Link.com,2013-02-13 13:03:00,
2013-02-13 08:19:00,39.0,38.5,29.53,NE,45,0.0,-999.0,98,-99.99,,,0.14,Acu-Link.com,2013-02-13 13:19:00,
2013-02-13 08:34:00,39.0,38.5,29.51,WNW,292,1.1,-999.0,98,-99.99,,,0.14,Acu-Link.com,2013-02-13 13:34:00,
2013-02-13 08:49:00,39.2,38.7,29.53,North,0,1.1,-999.0,98,-99.99,,,0.15,Acu-Link.com,2013-02-13 13:49:00,
2013-02-13 09:04:00,39.4,38.9,29.52,North,0,0.0,-999.0,98,-99.99,,,0.15,Acu-Link.com,2013-02-13 14:04:00,
2013-02-13 09:20:00,39.6,39.1,29.52,NW,315,2.2,-999.0,98,-99.99,,,0.15,Acu-Link.com,2013-02-13 14:20:00,
2013-02-13 09:35:00,39.7,39.2,29.51,SSW,202,2.2,-999.0,98,-99.99,,,0.15,Acu-Link.com,2013-02-13 14:35:00,
2013-02-13 09:50:00,39.9,39.4,29.52,East,90,0.0,-999.0,98,-99.99,,,0.15,Acu-Link.com,2013-02-13 14:50:00,
2013-02-13 10:05:00,40.1,39.6,29.50,WNW,292,0.0,-999.0,98,-99.99,,,0.15,Acu-Link.com,2013-02-13 15:05:00,
2013-02-13 10:20:00,40.5,40.0,29.50,South,180,1.1,-999.0,98,-99.99,,,0.15,Acu-Link.com,2013-02-13 15:20:00,
2013-02-13 10:36:00,40.6,40.1,29.49,East,90,0.0,-999.0,98,-99.99,,,0.16,Acu-Link.com,2013-02-13 15:36:00,
2013-02-13 10:51:00,40.8,40.3,29.49,NE,45,1.1,-999.0,98,-99.99,,,0.16,Acu-Link.com,2013-02-13 15:51:00,
2013-02-13 11:06:00,40.8,40.3,29.49,NNE,22,0.0,-999.0,98,-99.99,,,0.16,Acu-Link.com,2013-02-13 16:06:00,
2013-02-13 11:21:00,41.2,40.7,29.48,South,180,0.0,-999.0,98,-99.99,,,0.16,Acu-Link.com,2013-02-13 16:21:00,
2013-02-13 11:36:00,41.5,41.0,29.48,South,180,0.0,-999.0,98,-99.99,,,0.16,Acu-Link.com,2013-02-13 16:36:00,
2013-02-13 11:52:00,41.5,41.0,29.47,NW,315,0.0,-999.0,98,-99.99,,,0.17,Acu-Link.com,2013-02-13 16:52:00,
2013-02-13 12:07:00,41.9,41.4,29.46,West,270,1.1,-999.0,98,-99.99,,,0.17,Acu-Link.com,2013-02-13 17:07:00,
2013-02-13 12:22:00,41.9,41.4,29.46,NNE,22,1.1,-999.0,98,-99.99,,,0.17,Acu-Link.com,2013-02-13 17:22:00,
2013-02-13 12:37:00,42.3,41.8,29.44,NNW,337,1.7,-999.0,98,-99.99,,,0.17,Acu-Link.com,2013-02-13 17:37:00,
2013-02-13 12:52:00,42.6,42.1,29.43,WSW,247,1.7,-999.0,98,-99.99,,,0.17,Acu-Link.com,2013-02-13 17:52:00,
2013-02-13 13:08:00,43.3,42.8,29.42,East,90,0.0,-999.0,98,-99.99,,,0.17,Acu-Link.com,2013-02-13 18:08:00,
2013-02-13 13:23:00,44.8,44.3,29.42,ENE,67,2.7,-999.0,98,-99.99,,,0.17,Acu-Link.com,2013-02-13 18:23:00,
2013-02-13 13:38:00,45.3,44.8,29.40,NNE,22,2.7,-999.0,98,-99.99,,,0.17,Acu-Link.com,2013-02-13 18:38:00,
2013-02-13 13:53:00,46.2,45.7,29.40,South,180,0.0,-999.0,98,-99.99,,,0.17,Acu-Link.com,2013-02-13 18:53:00,
2013-02-13 14:08:00,46.4,45.9,29.40,South,180,2.2,-999.0,98,-99.99,,,0.17,Acu-Link.com,2013-02-13 19:08:00,
2013-02-13 14:24:00,46.8,46.3,29.40,North,0,0.0,-999.0,98,-99.99,,,0.17,Acu-Link.com,2013-02-13 19:24:00,
2013-02-13 14:39:00,46.8,46.3,29.40,North,0,0.0,-999.0,98,-99.99,,,0.17,Acu-Link.com,2013-02-13 19:39:00,
2013-02-13 14:54:00,46.9,46.4,29.40,SSE,157,0.0,-999.0,98,-99.99,,,0.17,Acu-Link.com,2013-02-13 19:54:00,
2013-02-13 15:09:00,48.7,48.2,29.38,ENE,67,2.7,-999.0,98,-99.99,,,0.17,Acu-Link.com,2013-02-13 20:09:00,
2013-02-13 15:24:00,51.1,50.6,29.38,South,180,2.2,-999.0,98,-99.99,,,0.17,Acu-Link.com,2013-02-13 20:24:00,
2013-02-13 15:40:00,51.3,50.8,29.38,North,0,1.1,-999.0,98,-99.99,,,0.17,Acu-Link.com,2013-02-13 20:40:00,
2013-02-13 15:55:00,52.5,52.0,29.38,SE,135,2.2,-999.0,98,-99.99,,,0.17,Acu-Link.com,2013-02-13 20:55:00,
2013-02-13 16:10:00,53.4,52.8,29.39,NNE,22,2.7,-999.0,98,-99.99,,,0.17,Acu-Link.com,2013-02-13 21:10:00,
2013-02-13 16:26:00,54.3,49.9,29.40,ESE,112,1.7,-999.0,85,-99.99,,,0.17,Acu-Link.com,2013-02-13 21:26:00,
2013-02-13 16:41:00,52.7,48.9,29.41,South,180,4.2,-999.0,87,-99.99,,,0.17,Acu-Link.com,2013-02-13 21:41:00,
2013-02-13 16:56:00,52.2,47.5,29.41,South,180,3.2,-999.0,84,-99.99,,,0.17,Acu-Link.com,2013-02-13 21:56:00,
2013-02-13 17:11:00,50.2,47.4,29.42,East,90,2.2,-999.0,90,-99.99,,,0.17,Acu-Link.com,2013-02-13 22:11:00,
2013-02-13 17:26:00,48.9,47.2,29.43,NW,315,3.2,-999.0,94,-99.99,,,0.17,Acu-Link.com,2013-02-13 22:26:00,
2013-02-13 17:42:00,48.4,47.9,29.44,SW,225,3.7,-999.0,98,-99.99,,,0.17,Acu-Link.com,2013-02-13 22:42:00,
2013-02-13 17:57:00,46.6,46.1,29.46,South,180,3.7,-999.0,98,-99.99,,,0.17,Acu-Link.com,2013-02-13 22:57:00,
2013-02-13 18:12:00,44.2,43.7,29.48,SSE,157,5.8,-999.0,98,-99.99,,,0.17,Acu-Link.com,2013-02-13 23:12:00,
2013-02-13 18:27:00,42.4,41.9,29.50,ENE,67,2.2,-999.0,98,-99.99,,,0.17,Acu-Link.com,2013-02-13 23:27:00,
2013-02-13 18:43:00,41.4,40.9,29.50,ENE,67,4.2,-999.0,98,-99.99,,,0.17,Acu-Link.com,2013-02-13 23:43:00,
2013-02-13 18:58:00,40.3,39.8,29.52,East,90,2.2,-999.0,98,-99.99,,,0.17,Acu-Link.com,2013-02-13 23:58:00,
2013-02-13 19:13:00,39.4,38.9,29.53,South,180,2.2,-999.0,98,-99.99,,,0.17,Acu-Link.com,2013-02-14 00:13:00,
2013-02-13 19:28:00,38.8,38.3,29.53,East,90,4.7,-999.0,98,-99.99,,,0.17,Acu-Link.com,2013-02-14 00:28:00,
2013-02-13 19:43:00,38.7,38.2,29.53,SE,135,3.7,-999.0,98,-99.99,,,0.17,Acu-Link.com,2013-02-14 00:43:00,
2013-02-13 19:59:00,38.1,37.6,29.53,ESE,112,4.2,-999.0,98,-99.99,,,0.17,Acu-Link.com,2013-02-14 00:59:00,
2013-02-13 20:14:00,37.8,37.3,29.53,East,90,2.7,-999.0,98,-99.99,,,0.17,Acu-Link.com,2013-02-14 01:14:00,
2013-02-13 20:29:00,37.0,36.5,29.54,East,90,3.2,-999.0,98,-99.99,,,0.17,Acu-Link.com,2013-02-14 01:29:00,
2013-02-13 20:44:00,36.5,36.0,29.55,SSE,157,2.7,-999.0,98,-99.99,,,0.17,Acu-Link.com,2013-02-14 01:44:00,
2013-02-13 20:59:00,36.0,35.5,29.55,North,0,3.2,-999.0,98,-99.99,,,0.17,Acu-Link.com,2013-02-14 01:59:00,
2013-02-13 21:15:00,35.4,34.9,29.56,East,90,2.2,-999.0,98,-99.99,,,0.17,Acu-Link.com,2013-02-14 02:15:00,
2013-02-13 21:30:00,35.2,34.7,29.57,SSE,157,2.7,-999.0,98,-99.99,,,0.17,Acu-Link.com,2013-02-14 02:30:00,
2013-02-13 21:45:00,35.1,34.6,29.57,South,180,10.9,-999.0,98,-99.99,,,0.17,Acu-Link.com,2013-02-14 02:45:00,
2013-02-13 22:00:00,34.9,34.4,29.58,ESE,112,1.1,-999.0,98,-99.99,,,0.17,Acu-Link.com,2013-02-14 03:00:00,
2013-02-13 22:15:00,34.7,34.2,29.58,SSE,157,5.3,-999.0,98,-99.99,,,0.17,Acu-Link.com,2013-02-14 03:15:00,
2013-02-13 22:31:00,35.1,34.6,29.59,ESE,112,2.2,-999.0,98,-99.99,,,0.17,Acu-Link.com,2013-02-14 03:31:00,
2013-02-13 22:46:00,34.7,34.2,29.60,NNE,22,10.4,-999.0,98,-99.99,,,0.17,Acu-Link.com,2013-02-14 03:46:00,
2013-02-13 23:01:00,34.5,34.0,29.60,NNE,22,2.7,-999.0,98,-99.99,,,0.17,Acu-Link.com,2013-02-14 04:01:00,
2013-02-13 23:16:00,34.7,34.2,29.61,NNE,22,5.3,-999.0,98,-99.99,,,0.17,Acu-Link.com,2013-02-14 04:16:00,
2013-02-13 23:32:00,34.9,34.4,29.62,SE,135,4.2,-999.0,98,-99.99,,,0.17,Acu-Link.com,2013-02-14 04:32:00,
2013-02-13 23:47:00,35.1,34.6,29.63,ENE,67,2.7,-999.0,98,-99.99,,,0.17,Acu-Link.com,2013-02-14 04:47:00,